Warning: Javascript must be enabled to use all the features on this page!


Page Loading - Please Wait...

* We've detected you're using a mobile device. Find our Next Generation Station Page here.
Click to hideNews Bulletins
  • Explore the NEW USGS National Water Dashboard interactive map to access real-time water data from over 13,500 stations nationwide.
  • Full News RSS icon
  • USGS has scheduled planned maintenance to our IT infrastructure, starting Tuesday, June 28, 2022, from 7:00-9:00am Eastern Daylight Time (EDT). During the maintenance period, there will be a short interruption in the availability of the most recent time-series data. Any backlog will be made available following conclusion of the scheduled maintenance.

Peak Streamflow for the Nation

USGS 03466500 NOLICHUCKY RIVER BELOW NOLICHUCKY DAM, TN

Greene County, Tennessee
Hydrologic Unit Code 06010108
Latitude  36°03'55.89", Longitude  82°51'59.68" NAD27
Drainage area 1,184.00  square miles
Gage datum 1,173.04 feet above NAVD88
Output formats
Table
Graph
Tab-separated file
peakfq (watstore) format
Reselect output format
Water
Year
Date Gage
Height
(feet)
Stream-
flow
(cfs)
1901 1901-05 38.00Bd  
1904 1904-03-07 5.20 10,600
1905 1905-07-12 8.60 20,600
1906 1906-01-23 19.30 73,500
1907 1906-11-19 13.60 43,500
1908 1908-01-12 9.10 22,100
1920 1920-04-02 15.10 42,000
1921 1921-08-03 14.00 36,700
1922 1922-01-20 7.95 14,200
1923 1923-03-17 9.25 18,000
1924 1924-01-11 9.00 16,900
1925 1924-12-09 9.00 16,900
1940 1940-08-14   73,5007
1946 1946-01-08 15.373 29,900
1947 1947-01-20 13.84 25,000
1948 1948-02-13 9.68 13,100
1949 1949-06-17 15.37 29,800
1950 1950-09-01 10.48 15,600
1951 1950-12-08 13.58 24,300
1952 1951-12-21 8.93 11,600
1953 1953-02-21 13.10 22,900
1954 1954-01-23 16.05 32,000
1955 1955-03-20 9.63 13,400
1956 1956-04-16 13.37 23,700
1957 1957-04-05 17.35 36,500
1958 1958-05-07 11.45 18,300
1959 1959-09-30 11.95 19,700
1960 1960-03-31 9.75 13,700
1961 1961-02-26 11.60 18,700
1962 1961-12-12 12.80 22,000
1963 1963-03-13 21.30 52,100
1964 1964-04-08 9.98 14,300
1965 1965-03-26 18.79 41,800
1966 1966-02-14 17.34 36,400
1967 1967-03-07 8.35 10,200
1968 1968-03-13 11.31 17,900
1969 1969-02-03 9.32 12,600
1970 1970-04-29 11.23 17,600
1971 1970-10-31 7.25 7,720
1972 1972-06-21 15.68 30,800
1973 1973-03-17 18.15 39,400
2013 2013-05-06 50.03 33,6006
2014 2013-12-23 46.97 17,3006
2015 2014-10-15 47.27 18,8006
2016 2015-12-02 48.37 24,2006
2017 2017-04-24 46.64 15,8006
2018 2018-05-30 49.01 27,7006
2019 2019-04-20 51.65 44,0006
2020 2020-02-07 51.68 44,0006
2021 2021-08-18 49.14 29,7006
?
  Peak Gage-Height Qualification Codes.
?
  Peak Streamflow Qualification Codes.